Preview of NWS' New Version of Forecast
This preview is not operational and should not be used for support decisions.

Regional Weather Roundup (RWR)

Issued by National Weather Service (NWS)

                            
000
ASUS45 KBOU 200610
RWRCO 

WEATHER ROUNDUP FOR COLORADO
NATIONAL WEATHER SERVICE DENVER/BOULDER CO
1200 AM MDT THU JUN 20 2019

NOTE: "FAIR" INDICATES FEW OR NO CLOUDS BELOW 12000 FEET WITH NO
SIGNIFICANT WEATHER AND/OR OBSTRUCTIONS TO VISIBILITY.

COZ001>005-013-030-031-200700-
...NORTHWEST COLORADO...
  
CITY           SKY/WX    TMP DP  RH WIND       PRES   REMARKS
CRAIG          FAIR      57  44  62 CALM      29.94F                  
HAYDEN         FAIR      59  41  51 S3        29.97F                  
MEEKER         FAIR      52  44  74 NE7       29.97S                  
RANGELY        FAIR      67  38  34 S7        29.88F                  
RABBIT EARS PA NOT AVBL                                               
STEAMBOAT SPGS FAIR      53  49  85 E5        29.98F                  
WALDEN         FAIR      52  37  58 W6        30.06F                  
$$

COZ006>008-011-200700-
...WEST CENTRAL VALLEYS...
  
CITY           SKY/WX    TMP DP  RH WIND       PRES   REMARKS
GRAND JUNCTION FAIR      66  40  38 E7        29.85F                  
MONTROSE       FAIR      63  41  44 SE10      29.98F                  
EAGLE          FAIR      54  43  66 E5        30.01F                  
RIFLE          FAIR      60  46  59 CALM      29.92S                  
DELTA          FAIR      64  40  42 NE7       29.93S                  
NUCLA          FAIR      64  36  34 E12       30.01F                  
$$

COZ017>023-064>068-200700-
...SOUTHWEST COLORADO...
  
CITY           SKY/WX    TMP DP  RH WIND       PRES   REMARKS
DURANGO        FAIR      54  37  52 N6        30.07F                  
CORTEZ         FAIR      56  39  53 NE9       30.02S                  
PAGOSA SPRINGS FAIR      53  36  52 CALM      30.16S                  
TELLURIDE      MOCLDY    52  37  58 SE6       30.26F                  
WOLF CREEK PAS FAIR      43  30  61 SW15      30.47F                  
$$

COZ009-010-012-014-032>034-037-058>063-200700-
...CENTRAL COLORADO...
  
CITY           SKY/WX    TMP DP  RH WIND       PRES   REMARKS
ASPEN          FAIR      49  37  63 S5        30.08F                  
BUENA VISTA    FAIR      56  32  38 NW5       30.09F                  
COPPER MTN     FAIR      46  30  53 SW29G40   30.33F                  
BERTHOUD PASS  FAIR      39  32  75 W49G67    30.27F                  
COTTONWOOD PAS FAIR      57  27  30 W7G21     30.21F                  
GUNNISON       FAIR      50  40  68 CALM      30.12S                  
GRANBY         MOCLDY    51  42  71 N3        30.07R                  
KREMMLING      FAIR      48  43  81 CALM      30.03F                  
LEADVILLE      FAIR      45  31  58 E5        30.20F                  
MONARCH PASS   FAIR      43  30  61 MISG      30.46F                  
SALIDA         FAIR      64  33  31 W15       30.13F                  
SUNLIGHT       FAIR      45  30  57 SW17G28   30.29S                  
WILKERSON PASS FAIR      46  28  49 SW15G23   30.31F                  
$$

COZ069>075-200700-
...SAN LUIS VALLEY/SANGRE DE CRISTO MOUNTAINS...
  
CITY           SKY/WX    TMP DP  RH WIND       PRES   REMARKS
ALAMOSA        FAIR      53  38  56 W7        30.11S                  
DEL NORTE      FAIR      55  32  41 W3        30.15S                  
LA VETA PASS   NOT AVBL                                               
SAGUACHE       FAIR      54  34  47 CALM      30.13S                  
$$

COZ035-036-038>040-200700-
...NORTHERN COLORADO FRONT RANGE...
  
CITY           SKY/WX    TMP DP  RH WIND       PRES   REMARKS
DENVER INTL AP MOCLDY    62  50  64 S8        29.82F                  
AURORA         MOCLDY    63  44  50 S12       29.85F                  
FRONT RANGE AP FAIR      66  49  54 SW10      29.85F                  
ERIE MUNI ARPT FAIR      73  32  22 SW6       29.85F                  
BOULDER MUN AP MOCLDY    64  43  45 N7        29.82R                  
CENTENNIAL     MOCLDY    71  36  27 SW15      29.87F                  
BROOMFIELD     FAIR      70  36  28 S8        29.85F                  
FORT COLLINS   MOCLDY    72  45  37 W13       29.82R                  
LONGMONT       FAIR      68  41  37 W10G24    29.84R                  
$$

COZ041-046-047-076>085-087-088-200700-
...PIKES PEAK/PALMER DIVIDE AND SOUTHERN FOOTHILLS...
  
CITY           SKY/WX    TMP DP  RH WIND       PRES   REMARKS
COLO. SPRINGS  FAIR      59  45  59 N8        29.96F                  
A. F. ACADEMY  FAIR      55  46  70 CALM      29.96F                  
SCHRIEVER AFB  NOT AVBL                                               
CHEYENNE MTN   NOT AVBL                                               
ELLICOTT         N/A    N/A N/A N/A S10       29.93F                  
FALCON         FAIR      59  41  51 SW6       30.01F                  
FORT CARSON    NOT AVBL                                               
LIMON          FAIR      59  49  69 E3        29.89F                  
MONUMENT HILL  FAIR      54  43  66 S8        30.01S                  
CANON CITY     FAIR      63  36  36 N3        29.89S                  
WALSENBURG     NOT AVBL                                               
TRINIDAD       FAIR      64  40  41 W14       29.94S                  
$$

COZ042>045-048>051-090-091-200700-
...NORTHEAST COLORADO...
  
CITY           SKY/WX    TMP DP  RH WIND       PRES   REMARKS
GREELEY ARPT   FAIR      66  48  52 W3        29.78S                  
AKRON          FAIR      62  52  69 S9        29.79F                  
BURLINGTON     FAIR      62  55  77 S14       29.82S                  
WRAY           FAIR      63  52  67 S5        29.75F                  
YUMA           FAIR      59  41  51 S9        29.77F                  
STERLING       FAIR      61  54  77 SW9       29.73F                  
HOLYOKE        FAIR      63  54  72 S10       29.74F                  
FORT MORGAN    FAIR      59  50  71 CALM      29.78S                  
$$

COZ086-089-092>099-200700-
...SOUTHEAST COLORADO...
  
CITY           SKY/WX    TMP DP  RH WIND       PRES   REMARKS
PUEBLO         FAIR      61  51  70 N5        29.84F                  
LA JUNTA       FAIR      67  49  52 SE7       29.80F                  
LAMAR          FAIR      65  53  65 S10       29.78F                  
SPRINGFIELD      N/A     59  53  80 S9        29.86F                  
$$